Williamtown, Australia

4:33 PM AEDT on March 24, 2017 (GMT +1100)
Williamtown Military

Weather History for YWLM - December, 2013

Change the Weather History Date:

Thursday, December 19, 2013

  Actual Average Record
Temperature  
Mean Temperature 69 °F -  
Max Temperature 82 °F - - ()
Min Temperature 56 °F - - ()
Cooling Degree Days 4    
Growing Degree Days 19 (Base 50)    
Moisture  
Dew Point 59 °F    
Average Humidity 63    
Maximum Humidity 94    
Minimum Humidity 34    
Precipitation  
Precipitation 0.00 in - - ()
Sea Level Pressure  
Sea Level Pressure 30.12 in    
Wind  
Wind Speed 8 mph ()    
Max Wind Speed 21 mph    
Max Gust Speed -    
Visibility 6.8 miles    
Events Fog    
T = Trace of Precipitation, MM = Missing Value Source: Averaged Metar Reports

Daily Weather History Graph

Daily Weather History Graph

Search for Another Location

Airport or City:

Trip Planner

Search our weather history database for the weather conditions in past years. The results will help you decide how hot, cold, wet, or windy it might be!

Date:

Astronomy

Dec. 19, 2013 Rise Set
Actual Time 5:40 AM AEDT 7:59 PM AEDT
Civil Twilight 5:11 AM AEDT 8:27 PM AEDT
Nautical Twilight 4:36 AM AEDT 9:02 PM AEDT
Astronomical Twilight 3:58 AM AEDT 9:41 PM AEDT
Moon 9:08 PM AEDT (12/19) 7:06 AM AEDT (12/19)
Length of Visible Light 15h 16m
Length of Day
14h 18m
Full, 98% of the Moon is Illuminated
Dec 19
Full
Dec 26
Last Quarter
Jan 1
New
Jan 8
First Quarter
Jan 16
Full

Hourly Weather History & Observations

Time (AEDT) Temp. Heat Index Dew Point Humidity Pressure Visibility Wind Dir Wind Speed Gust Speed Precip Events Conditions
12:00 AM 67 °F - 59 °F 68% 30.21 in - NE 6.9 mph - -  
12:00 AM 66.2 °F - 59.0 °F 78% 30.18 in 6.2 mi NE 6.9 mph - N/A   Unknown
12:30 AM 66.2 °F - 59.0 °F 78% 30.18 in 6.2 mi NE 5.8 mph - N/A   Unknown
1:00 AM 66.2 °F - 59.0 °F 78% 30.18 in 6.2 mi NE 6.9 mph - N/A   Unknown
1:30 AM 64.4 °F - 59.0 °F 83% 30.18 in 6.2 mi ENE 5.8 mph - N/A   Unknown
2:00 AM 63 °F - 59 °F 81% 30.19 in - ENE 4.6 mph - -  
2:00 AM 62.6 °F - 59.0 °F 88% 30.18 in 6.2 mi ENE 4.6 mph - N/A   Unknown
2:30 AM 62.6 °F - 59.0 °F 88% 30.18 in 6.2 mi ENE 4.6 mph - N/A   Unknown
3:00 AM 62 °F - 58 °F 84% 30.17 in - ENE 4.6 mph - -  
3:00 AM 60.8 °F - 59.0 °F 94% 30.15 in 6.2 mi ENE 4.6 mph - N/A   Unknown
3:30 AM 62.6 °F - 59.0 °F 88% 30.15 in 6.2 mi ENE 3.5 mph - N/A   Unknown
4:00 AM 62.6 °F - 59.0 °F 88% 30.15 in 6.2 mi ENE 5.8 mph - N/A   Unknown
4:30 AM 60.8 °F - 59.0 °F 94% 30.15 in 6.2 mi ENE 4.6 mph - N/A   Unknown
5:00 AM 61 °F - 58 °F 87% 30.17 in - ENE 4.6 mph - -  
5:00 AM 60.8 °F - 59.0 °F 94% 30.15 in 6.2 mi ENE 4.6 mph - N/A   Unknown
5:30 AM 57.2 °F - 55.4 °F 94% 30.15 in 6.2 mi Calm Calm - N/A   Unknown
6:00 AM 58 °F - 56 °F 90% 30.18 in 12 mi Calm Calm - - Fog Patches of Fog
6:00 AM 57.2 °F - 55.4 °F 94% 30.15 in 6.2 mi Calm Calm - N/A Fog Partly Cloudy
6:30 AM 62.6 °F - 59.0 °F 88% 30.18 in 6.2 mi ENE 5.8 mph - N/A   Partly Cloudy
7:00 AM 66.2 °F - 60.8 °F 83% 30.18 in 6.2 mi ENE 8.1 mph - N/A   Partly Cloudy
7:30 AM 69.8 °F - 60.8 °F 73% 30.18 in 6.2 mi ENE 9.2 mph - N/A   Partly Cloudy
8:00 AM 71 °F - 59 °F 58% 30.20 in - NE 12.7 mph - -  
8:00 AM 71.6 °F - 59.0 °F 64% 30.18 in - NE 12.7 mph - N/A   Clear
8:30 AM 73.4 °F - 59.0 °F 61% 30.18 in - NE 9.2 mph - N/A   Clear
9:00 AM 74 °F - 59 °F 49% 30.20 in 16 mi NE 8.1 mph - -   Haze
9:00 AM 73.4 °F - 59.0 °F 61% 30.18 in 6.2 mi NE 8.1 mph - N/A   Partly Cloudy
9:30 AM 75.2 °F - 57.2 °F 53% 30.18 in 6.2 mi NE 9.2 mph - N/A   Partly Cloudy
10:00 AM 77.0 °F - 57.2 °F 50% 30.18 in 6.2 mi NE 9.2 mph - N/A   Partly Cloudy
10:30 AM 78.8 °F - 55.4 °F 44% 30.18 in 6.2 mi NNE 11.5 mph - N/A   Partly Cloudy
11:00 AM 78 °F - 57 °F 37% 30.18 in - NNE 10.4 mph - -  
11:00 AM 78.8 °F - 57.2 °F 47% 30.18 in 6.2 mi NNE 10.4 mph - N/A   Partly Cloudy
11:30 AM 80.6 °F 81.1 °F 59.0 °F 48% 30.15 in 6.2 mi East 6.9 mph - N/A   Partly Cloudy
12:00 PM 80 °F - 57 °F 34% 30.17 in 16 mi NE 9.2 mph - -   Haze
12:00 PM 80.6 °F 80.8 °F 57.2 °F 45% 30.15 in - NE 9.2 mph - N/A   Clear
12:30 PM 82.4 °F 82.0 °F 57.2 °F 42% 30.15 in - ENE 8.1 mph - N/A   Clear
1:00 PM 82.4 °F 81.7 °F 55.4 °F 39% 30.12 in - North 8.1 mph - N/A   Clear
1:30 PM 82.4 °F 82.0 °F 57.2 °F 42% 30.12 in - ENE 12.7 mph - N/A   Clear
2:00 PM 81 °F - 60 °F 38% 30.12 in - NE 13.8 mph - -  
2:00 PM 80.6 °F 81.5 °F 60.8 °F 51% 30.09 in - NE 13.8 mph - N/A   Clear
2:30 PM 82.4 °F 82.9 °F 60.8 °F 48% 30.09 in 6.2 mi East 18.4 mph - N/A   Unknown
3:00 PM 81 °F - 61 °F 41% 30.09 in - ENE 18.4 mph - -  
3:00 PM 80.6 °F 81.5 °F 60.8 °F 51% 30.06 in 6.2 mi ENE 18.4 mph - N/A   Unknown
3:30 PM 82.4 °F 82.9 °F 60.8 °F 48% 30.06 in 6.2 mi East 20.7 mph - N/A   Unknown
4:00 PM 82.4 °F 82.9 °F 60.8 °F 48% 30.06 in 6.2 mi East 19.6 mph - N/A   Unknown
4:30 PM 80.6 °F 81.5 °F 60.8 °F 51% 30.06 in 6.2 mi East 17.3 mph - N/A   Unknown
5:00 PM 80 °F - 61 °F 43% 30.06 in - ENE 17.3 mph - -  
5:00 PM 80.6 °F 81.5 °F 60.8 °F 51% 30.04 in 6.2 mi ENE 17.3 mph - N/A   Unknown
5:30 PM 78.8 °F - 60.8 °F 54% 30.04 in 6.2 mi ENE 17.3 mph - N/A   Unknown
6:00 PM 79 °F - 62 °F 46% 30.05 in - ENE 18.4 mph - -  
6:00 PM 78.8 °F - 62.6 °F 57% 30.04 in 6.2 mi ENE 18.4 mph - N/A   Unknown
6:30 PM 78.8 °F - 60.8 °F 54% 30.04 in 6.2 mi ENE 18.4 mph - N/A   Unknown
7:00 PM 77.0 °F - 60.8 °F 57% 30.04 in 6.2 mi NE 17.3 mph - N/A   Unknown
7:30 PM 75.2 °F - 59.0 °F 57% 30.04 in 6.2 mi NE 16.1 mph - N/A   Unknown
8:00 PM 74 °F - 59 °F 49% 30.05 in - NE 12.7 mph - -  
8:00 PM 73.4 °F - 59.0 °F 61% 30.04 in 6.2 mi NE 12.7 mph - N/A   Unknown
8:30 PM 73.4 °F - 57.2 °F 57% 30.04 in 6.2 mi NE 12.7 mph - N/A   Unknown
9:00 PM 72 °F - 57 °F 50% 30.06 in - NE 9.2 mph - -  
9:00 PM 71.6 °F - 57.2 °F 60% 30.04 in 6.2 mi NE 9.2 mph - N/A   Unknown
9:30 PM 71.6 °F - 59.0 °F 64% 30.04 in - NE 10.4 mph - N/A   Unknown
10:00 PM 69.8 °F - 59.0 °F 68% 30.06 in 6.2 mi NE 8.1 mph - N/A   Unknown
10:30 PM 69.8 °F - 59.0 °F 68% 30.04 in 6.2 mi NE 8.1 mph - N/A   Unknown
11:00 PM 70 °F - 60 °F 61% 30.06 in - NNE 6.9 mph - -  
11:00 PM 69.8 °F - 59.0 °F 68% 30.04 in 6.2 mi NNE 6.9 mph - N/A   Unknown
11:30 PM 68.0 °F - 60.8 °F 78% 30.04 in - ENE 4.6 mph - N/A   Unknown